Theta_e
290 289 288 288 288 288 288 288 288 288 288 288 288 288 288 288 288 287 287 286 286 285 284 284 284 283 283 283 283 283 283 283 283 283 283 283 282 280 280 279 277 277 277 276 275 275 275 276 276 276 276 277 276 276 278 279 280 281 282 283 285 288 291 292 294 296 296 295 295 294 295 296 296 296 296 299 303 306 308 313 321 324 323 322 322
290 289 288 288 288 288 288 288 288 288 288 288 288 288 288 288 287 287 286 285 285 284 284 283 283 283 283 283 283 283 283 283 283 283 282 282 282 281 280 278 277 276 275 275 275 274 274 275 276 276 276 276 276 276 277 279 280 281 282 283 285 288 290 292 294 296 296 296 295 295 295 296 296 296 296 297 300 304 305 309 318 323 322 322 323
289 288 288 287 288 288 288 288 288 288 288 288 288 288 288 287 287 286 285 285 284 284 283 283 283 283 283 283 284 284 284 284 283 283 282 281 281 281 280 278 277 275 274 274 274 273 274 274 275 275 275 275 275 275 276 277 279 280 281 283 285 288 290 292 294 296 296 296 295 295 296 296 296 296 296 297 298 303 305 306 313 322 323 323 324
288 288 287 288 288 288 288 288 287 287 288 288 288 288 287 287 286 285 285 284 284 283 282 282 283 283 284 284 284 284 283 283 283 282 281 280 280 280 280 278 276 275 273 273 272 272 273 274 274 275 275 275 275 274 274 276 278 279 281 283 284 287 290 291 293 296 296 296 296 296 296 296 296 296 296 297 297 301 304 304 309 320 324 323 324
288 287 288 288 288 288 287 287 287 288 288 288 288 287 287 286 285 285 284 283 283 282 282 283 283 284 284 284 283 283 283 283 283 282 281 280 280 279 278 277 275 273 272 271 271 271 272 273 273 274 274 274 274 274 274 275 276 278 280 282 284 287 290 291 293 295 295 295 295 295 296 296 296 296 296 297 297 300 303 303 307 317 324 323 324
287 287 287 287 288 287 287 287 287 288 288 288 287 287 286 285 285 284 283 283 282 282 282 283 283 284 283 283 283 283 283 282 282 282 281 280 279 278 277 275 273 271 271 270 270 271 271 272 273 273 273 273 273 273 273 274 276 277 279 281 284 286 289 290 292 294 295 295 295 295 296 296 296 296 297 297 298 299 302 303 306 315 322 321 322
287 287 287 287 287 287 287 287 287 288 288 287 287 286 285 285 284 283 283 282 282 282 283 283 283 283 283 282 282 282 282 282 282 280 280 279 278 275 273 272 270 270 270 270 271 271 272 272 272 273 273 273 273 273 274 274 275 276 277 280 283 286 288 290 291 293 294 295 295 295 296 296 296 296 296 297 298 298 299 301 305 314 320 320 321
287 287 287 287 287 287 287 287 287 288 288 287 286 285 285 284 283 283 282 282 282 283 283 283 283 282 282 282 282 282 282 282 280 279 278 276 274 271 270 270 270 270 271 271 272 272 273 273 273 274 274 274 274 274 274 275 275 276 278 280 282 285 288 289 290 292 294 294 294 295 295 296 296 297 297 297 298 298 299 299 303 313 319 319 320
287 287 287 287 287 287 287 287 288 288 287 286 285 285 284 283 283 282 282 282 282 283 283 282 282 282 282 282 282 281 281 280 278 276 274 272 270 269 270 270 271 272 272 272 273 273 273 274 274 274 274 274 274 274 275 275 275 276 277 279 281 284 286 288 289 291 292 293 294 294 295 296 296 297 297 298 298 299 299 299 301 312 318 317 316
287 287 287 287 287 287 287 287 288 287 286 285 285 284 283 283 282 282 282 282 282 282 282 282 282 282 282 282 281 279 278 277 275 273 271 270 270 271 271 271 272 272 273 273 273 273 274 274 274 275 275 275 275 275 275 276 276 277 278 278 280 283 285 287 289 291 292 292 293 293 294 295 295 296 297 298 299 299 300 299 300 309 318 317 316
287 287 287 287 287 287 287 288 288 286 285 285 284 283 283 282 281 281 282 282 282 282 282 282 282 282 281 280 279 277 277 275 273 272 270 269 270 271 271 272 272 273 273 274 274 274 274 275 275 275 275 276 276 276 276 276 277 278 278 279 280 282 284 286 288 290 292 292 292 293 293 294 294 295 296 297 298 299 300 300 300 307 317 317 315
287 287 287 287 287 287 288 288 287 286 285 284 284 283 282 281 281 281 282 282 282 281 281 281 281 281 280 279 278 276 276 274 272 271 270 269 270 271 272 272 273 273 274 274 275 275 275 275 275 276 276 276 276 276 276 276 277 278 278 279 281 282 283 284 286 288 290 291 292 292 293 293 294 295 296 297 298 299 301 300 300 306 316 317 315
287 287 287 287 287 287 288 287 286 285 284 284 283 282 281 281 281 281 282 282 281 281 281 281 280 280 279 278 277 276 275 274 272 270 270 270 270 272 272 273 273 273 274 274 275 276 276 276 276 277 277 277 277 277 277 277 277 278 278 279 281 282 283 285 286 287 288 290 291 291 292 293 294 295 296 296 297 299 301 301 300 305 314 317 315
287 287 287 287 287 288 287 286 285 285 284 283 282 281 281 280 281 281 281 281 281 281 281 280 280 279 278 277 277 276 275 274 272 270 270 270 271 272 273 273 273 274 274 275 275 276 276 277 277 277 278 278 278 278 278 277 277 278 279 280 281 283 284 285 286 288 288 289 290 291 292 293 294 295 296 296 296 297 299 301 301 305 314 317 316
287 287 287 287 287 287 287 285 285 284 284 283 281 281 280 280 281 281 281 281 281 280 280 280 279 279 278 277 277 276 275 273 272 271 270 270 272 272 273 273 273 273 274 275 275 276 277 277 278 278 278 278 278 279 278 278 278 278 279 280 282 283 285 286 287 288 289 290 290 291 292 293 293 294 295 295 295 296 298 301 301 305 313 317 316
287 287 287 287 287 287 286 285 284 284 283 282 281 280 280 280 280 281 280 280 280 280 279 279 279 279 278 277 276 276 275 273 271 271 270 271 272 273 273 273 273 274 274 275 275 276 276 277 277 278 278 278 279 279 279 279 279 278 279 280 282 283 285 287 288 289 289 290 291 291 292 293 293 294 295 295 294 295 297 300 301 303 311 315 314
287 287 287 287 287 286 285 284 284 283 282 281 280 280 280 280 280 280 280 280 280 279 279 278 278 278 278 276 275 275 274 273 271 271 270 271 272 273 273 273 274 274 274 275 275 275 275 276 277 277 278 278 279 279 280 279 279 279 279 280 281 283 284 286 287 288 289 290 291 291 292 293 293 294 294 294 294 294 295 298 299 301 308 314 313
287 287 287 287 287 285 284 284 284 282 281 281 280 280 280 280 280 280 279 279 279 278 278 278 278 277 277 276 274 273 273 272 271 271 271 271 273 273 273 273 274 274 274 274 274 275 275 276 277 277 278 279 279 280 280 280 280 280 279 280 281 282 283 285 286 287 289 290 290 290 291 292 293 293 294 294 294 294 294 296 298 299 305 312 314
287 287 287 287 286 284 284 284 283 281 280 280 279 279 279 280 279 279 279 278 278 278 277 278 279 278 276 275 273 271 271 270 270 270 271 272 273 273 273 273 274 274 274 274 275 275 275 276 277 278 278 279 280 281 281 281 281 280 280 281 281 282 283 285 286 287 288 289 290 290 291 292 293 293 293 293 293 294 294 295 297 298 303 311 314
287 287 287 286 284 284 283 283 282 281 280 279 279 279 279 279 279 278 278 278 278 277 277 278 278 277 275 273 272 270 270 270 270 270 271 272 272 273 273 273 274 274 275 275 275 276 276 276 277 278 278 279 280 281 282 282 282 282 282 282 282 283 284 285 285 286 287 288 289 290 291 292 292 292 293 293 293 294 295 296 298 299 302 310 314
287 287 286 285 283 283 283 282 281 280 279 279 278 279 279 279 278 278 277 277 277 277 277 277 277 275 273 272 271 270 270 270 270 270 271 271 272 273 273 273 274 275 275 275 276 276 276 277 277 277 278 279 280 281 282 283 283 283 283 283 283 284 285 285 286 286 287 288 289 289 290 291 291 292 292 293 293 295 296 297 299 300 303 309 314
287 287 285 284 282 282 282 281 280 279 279 278 278 278 279 278 277 277 276 276 276 277 276 276 275 274 273 272 271 270 270 270 270 270 270 271 272 273 273 274 274 275 275 275 275 275 276 276 277 277 278 279 280 281 282 282 283 284 284 284 284 285 285 285 286 286 288 288 288 289 290 290 291 292 292 293 294 296 296 298 301 302 303 309 314
287 286 284 283 282 281 281 280 279 278 278 278 278 278 278 277 277 276 276 276 276 276 275 275 274 273 271 270 270 270 270 270 270 270 270 271 272 272 273 274 274 274 274 274 274 275 275 275 276 277 278 279 281 282 282 283 283 284 285 285 285 286 286 286 287 287 288 289 289 289 290 291 291 292 293 294 295 296 297 300 303 303 304 308 314
286 285 283 282 281 281 280 279 278 278 278 278 278 278 278 277 276 275 275 275 275 275 275 274 272 270 269 269 270 270 270 270 270 270 270 271 272 272 273 273 274 274 273 273 274 274 274 275 276 277 279 280 281 282 283 283 284 284 285 286 286 286 287 287 288 288 288 289 289 290 290 291 292 292 293 295 295 296 298 301 303 304 305 309 314
285 283 282 281 280 280 279 278 278 278 278 277 278 277 277 276 276 275 275 274 274 275 274 272 269 268 268 269 269 270 270 270 271 271 270 271 271 272 272 273 273 273 273 273 273 274 274 275 277 278 279 281 282 282 283 285 285 285 285 286 286 286 287 287 288 288 289 289 290 290 291 292 292 293 294 295 295 296 299 302 304 305 306 309 313
284 282 281 280 279 279 278 277 278 278 277 277 277 277 276 276 275 274 274 274 274 274 273 271 268 268 268 268 268 269 270 271 271 271 270 271 271 271 271 272 272 272 272 273 273 274 275 277 279 280 281 281 282 283 284 285 286 287 287 287 286 287 287 287 288 288 289 290 290 291 291 292 293 294 294 295 295 297 301 303 304 305 307 309 311
283 281 280 279 278 278 277 277 278 278 277 276 276 276 275 275 274 274 274 273 273 273 271 269 268 267 267 268 268 269 269 270 271 271 271 271 271 271 271 271 271 271 272 272 272 274 276 278 280 281 282 283 283 284 285 286 287 287 288 288 288 288 287 287 288 289 289 290 290 291 291 292 293 294 294 295 297 299 302 304 305 306 308 309 310
282 281 279 278 278 277 277 277 278 277 276 276 275 275 275 274 274 274 273 273 273 272 269 268 268 267 267 268 269 269 269 270 270 270 271 271 271 271 271 270 270 271 272 271 272 274 277 278 280 281 281 281 283 284 285 286 287 288 289 290 290 289 289 288 288 289 289 290 290 291 291 292 293 294 295 297 299 301 304 305 306 307 309 309 310
281 280 278 278 277 278 277 277 277 277 276 275 274 274 274 274 273 273 272 272 272 271 270 269 269 268 267 268 269 269 269 269 270 270 271 271 271 270 270 270 270 271 271 271 272 274 276 278 279 279 280 280 282 283 284 285 286 288 289 290 291 291 290 289 289 289 290 290 291 291 292 293 294 295 296 298 300 303 305 306 307 308 309 309 309
280 279 278 277 277 277 277 277 277 276 275 275 274 273 273 272 272 272 272 272 271 271 271 271 270 269 268 268 268 269 269 269 269 270 270 270 270 270 270 270 270 270 270 271 272 273 275 276 277 277 278 279 280 282 283 285 286 287 288 289 291 291 291 291 291 291 291 291 291 292 293 293 294 296 297 299 301 304 306 307 308 308 308 309 309
279 278 277 277 277 277 277 277 276 275 274 274 273 273 273 272 271 271 271 271 271 271 271 271 271 271 270 269 268 269 270 270 269 269 269 269 270 270 270 270 271 270 269 270 271 272 273 274 274 274 275 276 278 279 281 283 284 286 287 288 290 291 292 292 292 292 292 292 293 293 294 294 295 297 298 300 303 306 307 307 307 308 308 309 309
278 277 276 276 276 276 276 276 275 274 274 273 272 272 272 272 272 271 271 271 271 271 271 271 271 271 271 271 269 268 270 270 270 269 269 270 270 270 270 270 271 270 269 270 271 271 271 271 271 272 272 274 275 277 278 280 281 283 285 286 288 289 291 292 293 293 293 293 294 294 295 295 296 297 299 301 304 306 306 306 307 307 308 308 308
277 276 276 276 276 276 276 275 275 274 273 272 272 271 271 271 271 271 271 271 271 271 271 271 271 271 272 271 270 269 270 271 270 270 270 270 270 271 271 271 270 269 270 270 270 270 270 270 270 270 270 271 273 274 276 277 278 280 282 285 287 288 289 290 291 293 294 295 295 296 296 297 297 298 299 302 304 305 305 306 306 307 307 307 307
277 276 276 276 275 275 275 275 274 273 272 271 271 271 270 270 270 270 270 271 271 271 271 271 271 271 271 271 271 270 270 271 271 270 271 271 271 271 272 273 273 272 271 270 269 268 268 268 269 270 270 270 271 273 274 276 277 278 281 284 286 288 289 290 291 292 294 295 296 297 297 297 298 299 300 302 304 304 305 306 306 306 306 306 306
276 275 275 275 275 275 275 274 273 272 271 271 270 270 270 270 269 269 269 269 270 270 270 270 270 270 270 271 271 270 270 270 271 270 270 271 271 272 273 274 274 273 271 269 268 267 267 267 268 269 269 269 270 271 273 274 276 277 279 282 284 287 289 291 291 292 293 294 295 297 297 298 299 299 300 301 303 304 304 305 306 306 306 306 306
275 275 275 275 274 274 274 274 272 271 270 270 270 269 269 269 269 269 269 269 269 269 269 270 270 270 270 271 271 270 270 270 270 270 270 270 271 272 272 271 271 270 269 268 267 267 267 267 267 268 269 269 269 270 272 274 275 276 278 280 282 285 288 290 292 293 293 294 295 296 297 298 299 300 300 301 303 303 304 304 305 306 306 306 306
275 275 274 274 274 274 274 273 272 271 270 270 269 269 269 269 269 269 268 268 268 269 269 269 270 270 270 271 271 270 269 270 271 270 270 270 270 270 270 269 269 269 268 268 267 267 267 267 267 268 268 269 269 270 271 273 274 276 277 279 281 283 285 288 290 292 293 294 295 296 297 298 299 300 301 301 302 303 304 304 305 306 306 306 306
274 274 274 274 274 274 273 272 271 270 270 269 269 269 269 269 269 268 268 268 268 268 268 269 269 269 269 270 270 269 269 270 271 271 270 269 269 269 269 269 269 269 268 268 267 267 267 267 267 268 268 268 269 269 270 272 273 275 277 279 281 282 284 287 289 291 293 294 295 295 296 298 299 299 300 301 302 302 303 304 304 305 305 305 305
274 274 274 274 274 274 273 272 270 270 269 269 269 269 269 269 268 268 268 268 268 268 268 268 268 268 268 269 269 268 268 269 270 269 269 269 268 269 269 269 269 269 269 268 268 267 267 267 267 267 268 268 269 269 269 270 272 274 276 277 279 281 283 286 288 290 292 294 295 295 296 297 298 299 300 301 302 302 303 303 304 304 305 305 305
274 274 273 273 273 273 272 271 270 269 269 268 268 269 268 268 268 268 268 268 268 268 268 268 268 268 268 268 268 267 268 269 268 268 268 268 268 268 268 268 269 269 269 268 268 267 267 267 267 267 268 268 268 269 269 269 271 273 275 276 277 279 281 283 285 287 290 292 294 295 295 296 298 299 300 301 301 302 302 303 303 304 304 305 305
274 273 273 273 273 272 271 270 269 269 268 268 268 268 268 268 268 268 268 268 268 268 268 268 268 268 268 268 267 267 267 268 268 268 268 268 268 268 268 268 268 268 268 268 268 268 267 267 267 267 268 268 268 269 269 269 270 271 273 275 276 278 280 281 283 285 288 291 293 295 295 296 297 298 300 301 301 302 302 302 303 303 304 305 305
273 273 273 273 272 271 270 269 269 268 268 268 268 268 268 268 267 267 268 268 268 268 268 268 268 268 268 268 267 267 268 268 268 268 268 267 267 268 268 268 268 268 268 268 268 268 268 267 267 267 268 268 268 269 269 269 269 270 271 273 275 276 279 281 283 284 287 289 292 294 295 296 297 298 299 300 301 301 302 302 303 303 304 304 305
273 273 273 273 272 271 270 269 268 268 268 268 268 268 268 268 267 267 267 267 267 268 268 268 268 268 268 268 268 268 268 268 268 268 267 267 267 267 268 268 268 268 269 268 268 268 268 267 267 267 267 268 268 269 269 269 269 269 270 271 273 275 277 280 283 285 286 288 291 293 295 296 296 297 298 300 300 301 301 302 302 303 303 303 303
273 273 273 272 271 270 269 268 268 268 268 268 268 268 268 267 267 267 267 267 267 267 268 268 268 268 268 268 268 268 268 268 268 268 267 267 267 267 267 268 268 268 269 269 269 269 269 268 268 268 268 268 269 269 269 269 269 269 270 270 272 274 276 279 281 283 286 288 290 292 294 295 296 297 298 299 300 300 301 301 302 302 302 303 303
273 273 272 271 270 269 269 268 268 268 268 268 268 268 267 267 267 267 267 267 267 267 267 268 268 268 268 268 268 268 268 268 268 268 267 267 267 267 267 267 268 268 268 269 269 269 269 268 268 268 268 268 269 269 270 270 270 270 270 270 270 272 275 277 279 281 284 286 288 291 293 295 296 297 297 298 299 300 301 301 302 302 302 302 302
273 272 271 270 269 269 268 268 268 268 268 268 267 267 267 267 267 267 267 267 267 267 267 268 268 268 268 268 268 268 268 268 268 268 267 267 267 267 267 267 267 268 268 268 269 269 269 269 268 268 268 268 268 269 270 271 271 271 271 270 271 272 274 277 279 281 283 285 287 290 292 294 295 297 297 298 298 299 300 301 301 301 301 302 302
272 272 271 270 269 268 268 268 268 268 267 267 267 267 267 267 267 267 267 267 267 267 267 267 268 268 267 268 268 268 268 268 267 267 267 267 267 267 267 267 267 268 268 268 268 269 269 269 269 268 268 268 268 269 270 271 271 272 272 272 272 273 275 277 279 281 282 284 286 288 291 293 294 296 297 297 298 299 299 300 300 301 301 301 302
272 271 270 269 269 268 268 268 268 267 267 267 267 267 267 267 267 267 267 267 267 267 267 267 267 267 267 267 268 268 268 268 268 267 267 267 267 267 267 267 267 267 267 268 268 269 269 269 269 268 268 268 268 268 269 270 271 272 272 272 273 274 276 278 279 281 282 284 285 287 289 292 294 295 297 297 297 298 299 299 299 300 301 301 301
271 270 269 269 269 268 268 267 267 267 267 267 267 267 267 267 267 267 267 267 267 268 267 267 267 267 267 267 268 268 268 268 268 268 268 267 267 267 267 267 267 267 267 267 268 268 269 269 269 268 268 268 268 268 269 269 270 271 272 273 273 275 276 278 279 281 282 283 285 286 288 290 293 295 296 296 297 298 298 299 299 299 300 300 300
271 270 269 269 268 268 267 267 267 267 267 267 267 267 267 267 267 267 267 267 267 267 267 267 267 267 267 268 268 268 268 268 268 268 268 268 267 267 267 267 267 267 267 267 267 268 268 269 269 269 268 268 268 268 268 269 269 270 272 273 273 275 276 278 279 280 282 283 284 285 287 289 292 294 295 296 296 297 297 298 299 299 299 300 300
270 269 269 268 268 267 267 267 267 267 267 267 267 267 267 267 267 267 267 267 267 267 267 267 267 267 267 268 268 268 268 268 268 268 268 268 268 267 267 267 267 267 267 267 267 268 268 269 269 269 268 268 268 268 268 268 269 270 271 272 273 274 275 277 279 280 281 281 282 284 285 287 290 292 294 294 295 296 296 297 298 299 299 299 300
Wind_Speed
22 20 18 16 16 16 16 17 18 19 20 23 27 30 34 37 40 42 44 45 46 46 46 46 45 44 44 44 44 44 45 46 47 48 49 50 49 50 51 49 47 48 46 45 43 38 37 38 39 39 38 37 40 44 44 40 41 44 46 47 46 44 42 44 52 56 49 45 47 47 44 41 44 46 42 41 43 35 25 33 56 63 58 59 58
21 19 17 16 16 16 16 17 18 19 21 24 28 32 35 38 40 43 44 45 45 45 45 44 43 43 43 44 44 45 46 47 48 49 49 51 52 52 51 49 46 44 43 44 41 35 35 37 37 37 36 36 37 39 40 36 35 35 37 41 44 45 41 40 47 51 48 45 45 46 43 40 42 44 41 41 43 39 28 27 48 64 58 57 57
21 19 17 17 16 16 16 17 18 20 22 26 30 34 37 39 41 42 44 45 44 44 43 42 42 42 43 44 45 46 47 48 49 49 50 51 52 52 51 48 46 43 41 42 38 33 33 35 36 35 34 34 35 38 41 41 40 41 40 39 41 44 41 38 43 48 48 46 41 39 40 39 41 41 39 39 42 45 36 27 35 58 59 54 56
20 19 17 17 16 16 17 17 18 21 24 28 32 35 37 39 41 42 43 44 43 42 41 40 41 42 43 45 46 47 48 48 49 50 50 50 50 50 50 48 46 44 42 39 36 35 34 33 34 34 33 33 35 37 39 40 40 42 44 42 41 42 38 36 40 45 45 44 38 36 39 39 39 38 36 37 42 46 44 32 30 49 61 55 56
20 19 17 16 16 16 16 17 19 23 26 30 33 35 37 39 40 41 42 42 41 40 40 40 41 43 44 46 47 47 48 49 50 51 50 49 47 47 47 46 44 42 40 37 35 35 35 35 35 34 33 35 36 38 40 42 40 37 38 41 41 40 36 35 38 40 40 42 39 36 37 38 38 37 35 36 40 45 47 37 30 42 60 56 57
20 18 17 16 16 16 16 18 21 24 28 32 34 35 37 38 39 40 39 39 39 39 39 40 42 43 45 46 47 47 48 48 49 50 49 46 45 44 43 41 39 37 36 34 33 33 34 35 36 34 34 35 36 39 41 41 39 37 38 40 38 37 36 34 35 36 36 38 38 34 34 36 36 36 34 33 37 43 45 41 33 35 57 56 55
20 18 16 16 15 15 17 19 22 26 30 32 34 35 36 37 38 37 37 37 38 38 40 41 42 43 45 45 46 47 47 48 49 48 46 43 42 41 38 37 36 35 35 35 34 35 35 36 36 35 35 36 36 38 41 40 38 37 39 41 41 39 36 32 32 34 35 35 34 32 33 35 35 36 35 31 34 40 40 40 37 32 56 60 60
19 17 16 15 15 15 17 20 24 27 30 32 33 34 35 36 35 35 35 36 37 38 39 41 42 42 44 44 45 45 46 47 47 46 44 41 39 39 38 38 39 40 41 41 40 40 40 39 39 38 38 38 38 39 38 38 38 38 39 40 41 42 41 36 33 33 33 33 32 31 31 33 34 34 34 30 32 39 41 40 39 33 52 61 64
18 17 16 15 15 16 18 22 25 29 31 31 32 34 34 34 34 33 34 35 36 37 38 40 41 42 43 43 44 45 45 46 46 43 39 37 37 38 40 42 43 43 44 44 44 44 43 42 42 40 38 38 38 37 37 36 37 39 39 36 35 37 38 37 35 33 33 33 34 34 32 31 31 29 30 30 32 39 42 40 40 35 51 59 62
18 17 16 14 15 17 20 23 27 29 30 31 32 33 32 32 32 32 33 34 35 36 37 38 39 41 42 43 43 44 44 44 43 38 34 33 36 38 39 40 40 41 43 43 43 44 44 45 45 42 41 39 37 37 38 38 38 39 40 39 37 36 34 33 33 32 33 36 36 36 34 34 33 29 28 30 31 35 38 39 41 37 51 59 57
18 16 15 15 16 18 21 25 27 28 29 30 31 31 31 31 31 32 33 33 34 35 36 37 38 39 41 42 42 42 42 42 40 36 32 32 34 37 38 39 38 40 42 42 42 42 42 44 44 43 44 42 40 39 37 36 37 38 39 39 40 41 39 36 33 30 31 35 36 36 35 35 35 33 31 30 28 30 34 38 41 38 49 59 53
17 16 15 15 17 19 22 25 27 27 28 29 30 30 30 30 31 32 32 32 33 34 35 36 37 38 39 40 41 41 41 40 37 33 32 31 33 36 38 39 39 39 39 40 41 41 41 43 42 42 45 44 42 42 39 38 39 38 38 38 38 41 42 42 39 34 30 32 34 37 38 36 35 35 33 31 27 27 32 37 40 39 48 60 56
16 15 15 16 18 20 23 25 26 26 27 28 29 29 29 30 30 31 31 31 32 33 34 35 36 36 37 38 39 39 39 37 34 32 32 33 34 35 37 38 39 38 38 37 39 39 39 42 43 43 44 43 42 44 42 41 43 42 39 37 37 39 42 44 44 40 36 35 36 39 41 38 37 36 32 30 28 27 29 34 40 41 47 61 60
16 15 14 16 18 21 24 25 25 26 26 27 28 28 29 29 29 30 30 30 32 33 34 35 35 35 35 36 38 38 37 36 34 33 33 34 34 35 37 38 37 35 34 34 36 38 39 42 44 44 43 42 42 44 43 43 45 43 39 35 34 35 38 43 44 42 40 39 38 41 43 40 40 40 34 31 32 30 28 30 37 42 49 64 65
15 14 14 16 19 21 23 23 23 25 25 26 27 27 28 29 28 29 29 30 32 33 34 35 34 35 35 36 38 39 38 37 35 34 33 34 35 35 35 35 33 33 32 32 34 35 36 38 40 41 42 41 40 40 41 42 42 41 37 34 33 32 33 38 42 42 43 43 42 42 44 43 42 42 37 35 36 35 32 29 32 40 49 64 65
14 13 14 17 19 21 22 22 22 24 24 25 26 27 28 27 27 28 29 29 31 32 33 34 34 35 36 37 39 41 40 38 37 35 33 34 35 34 34 34 34 33 33 33 33 33 33 35 37 38 39 40 38 37 37 38 39 38 37 34 33 32 32 34 36 37 39 44 44 42 44 45 44 41 37 37 38 38 37 35 35 40 44 57 60
13 13 14 17 19 20 20 20 21 22 23 24 25 26 27 26 26 28 29 30 31 32 33 34 34 35 36 38 40 42 43 41 39 36 33 33 34 34 35 36 35 34 33 33 34 36 36 37 37 37 38 38 37 34 33 33 35 37 37 34 33 34 36 36 36 35 36 40 41 41 43 45 44 41 38 38 40 39 40 41 42 42 39 53 58
13 13 15 17 18 19 19 19 20 21 22 24 25 25 26 25 26 27 28 30 31 31 33 34 34 35 36 38 39 41 43 43 40 37 34 33 34 35 35 36 35 35 34 34 34 36 37 37 36 36 37 38 36 33 30 30 33 35 36 35 35 38 39 38 38 38 39 40 40 40 42 44 43 41 40 41 42 42 44 46 46 45 38 52 61
12 13 15 17 17 17 17 18 19 20 21 23 24 25 25 25 25 26 27 29 31 31 32 35 36 36 37 39 39 40 42 42 40 36 34 33 34 35 35 36 36 36 36 37 39 39 39 39 37 36 37 37 36 33 31 31 33 34 34 34 36 39 40 39 38 39 39 41 42 42 43 44 43 42 41 43 44 45 47 47 46 47 42 52 68
12 13 14 15 15 15 15 16 18 19 20 22 22 23 24 24 25 25 26 28 30 31 32 35 37 39 39 39 39 38 39 40 38 34 33 33 34 34 35 37 38 39 40 41 43 43 40 39 39 38 36 35 34 33 31 31 33 35 35 35 36 37 37 37 38 38 38 40 41 41 42 42 41 42 43 46 48 47 48 47 47 49 44 48 70
12 12 13 13 13 13 14 15 17 18 20 21 21 22 23 24 25 25 26 27 29 31 32 34 36 38 38 38 38 37 36 36 35 34 33 33 34 34 36 37 37 39 41 41 40 40 38 37 38 38 36 35 33 31 30 30 31 34 37 38 38 35 34 35 36 36 37 39 39 38 39 41 42 44 46 49 50 48 47 47 49 51 47 47 68
11 12 12 12 11 12 13 15 16 17 19 21 20 20 21 22 24 24 25 26 29 31 32 33 34 36 38 38 38 38 37 36 35 35 34 34 35 35 36 36 36 37 40 39 38 37 36 37 40 41 39 37 35 34 32 31 30 32 35 36 36 35 34 35 34 33 34 36 36 36 39 41 44 47 49 50 50 48 46 47 50 51 48 50 70
11 10 10 10 10 10 12 14 15 16 19 20 19 20 20 21 22 24 24 25 28 30 31 32 34 36 38 38 37 38 39 39 39 38 36 36 36 36 35 36 35 35 37 38 37 37 36 37 40 41 40 37 35 35 33 31 30 31 32 33 33 34 34 35 34 32 32 34 34 36 40 43 45 49 51 50 49 46 45 46 51 52 48 52 73
9 9 9 9 8 9 11 12 13 16 18 19 18 18 19 20 21 22 23 24 27 29 31 33 34 36 37 38 39 40 41 43 43 42 40 38 37 36 36 36 35 35 36 36 35 35 36 38 38 37 36 35 34 35 34 33 31 31 31 31 31 32 33 34 35 34 33 33 34 37 42 45 48 51 51 49 47 45 43 45 51 54 50 54 72
8 8 8 8 7 8 10 11 13 15 17 18 17 17 18 19 20 21 22 24 26 28 31 32 32 34 36 38 39 41 43 45 45 46 45 42 39 38 36 35 34 34 34 34 35 36 37 37 36 35 35 34 34 35 35 34 32 31 30 30 31 32 33 34 34 34 34 35 36 39 44 48 50 51 49 47 45 42 42 44 50 53 52 55 67
8 8 8 7 6 7 10 11 12 14 15 16 16 16 18 19 20 21 23 24 25 27 30 31 31 32 34 35 36 40 43 44 45 48 48 44 42 41 38 36 36 34 33 33 36 37 36 34 31 29 29 30 31 33 35 35 33 31 30 30 31 33 34 34 34 34 35 36 37 40 43 45 46 46 44 43 42 40 41 45 48 51 54 54 59
8 8 8 7 6 7 8 10 12 13 14 13 13 15 17 18 19 21 23 24 26 27 28 28 29 30 33 34 36 39 42 43 46 48 48 46 44 42 39 38 38 35 34 36 38 36 33 30 25 21 20 21 23 26 29 32 32 32 31 30 30 32 34 35 36 35 36 37 38 39 40 39 39 40 39 38 37 37 42 47 48 51 56 55 55
8 9 8 7 7 7 8 9 10 11 12 12 12 13 14 15 17 20 21 23 25 26 26 26 26 28 31 33 36 40 41 42 44 45 45 45 43 41 39 38 36 35 35 36 35 30 26 22 17 11 11 14 16 17 20 23 26 28 29 29 28 29 32 34 36 36 37 38 38 37 37 36 36 36 36 35 35 38 44 49 50 54 57 55 55
9 9 8 7 7 8 8 8 9 9 9 9 11 13 15 16 16 17 18 19 20 20 22 23 24 25 27 29 33 38 40 40 40 40 41 41 40 39 37 33 30 32 34 31 29 26 21 17 14 11 9 9 10 11 13 15 17 20 23 25 26 26 29 33 36 37 37 37 37 37 36 35 35 35 34 33 34 41 48 51 52 56 57 56 56
9 9 8 8 7 8 8 8 8 8 6 5 7 9 13 16 17 17 17 17 17 16 18 20 21 21 23 25 27 30 33 35 36 37 38 39 38 35 32 26 23 29 31 27 25 26 23 19 18 18 17 15 13 13 13 13 13 13 15 20 25 26 26 29 32 34 35 36 37 37 36 34 35 34 32 32 36 45 51 53 54 57 58 59 58
9 9 8 7 7 7 8 7 8 7 6 5 5 5 6 8 12 15 17 17 16 15 16 17 19 19 20 22 25 28 29 30 34 35 36 37 36 33 29 24 21 25 29 29 29 30 29 26 26 26 25 23 21 18 17 16 15 13 10 12 19 24 27 27 27 28 31 33 34 34 33 33 34 32 30 33 40 48 51 52 55 57 60 62 60
10 9 8 7 7 6 7 7 7 7 5 6 7 7 7 6 7 9 13 16 18 18 18 18 18 19 19 20 24 28 30 31 33 35 36 36 35 33 30 26 24 25 28 30 31 33 34 34 34 34 32 30 26 23 21 20 18 16 13 9 10 16 22 26 28 29 29 29 30 30 29 30 31 30 30 34 42 49 51 52 54 56 59 61 61
10 9 8 7 6 6 6 6 6 5 5 6 7 9 11 11 11 10 10 11 13 15 17 18 19 19 20 21 23 26 29 30 32 34 36 36 35 34 31 29 28 29 31 34 36 38 40 40 39 39 37 35 32 28 25 23 22 20 17 12 9 9 14 20 25 28 28 25 24 25 25 27 28 28 31 37 43 48 51 53 55 55 56 57 59
11 10 9 7 6 6 5 5 5 4 4 6 8 10 12 14 16 16 16 15 14 13 14 17 19 20 21 22 24 26 28 30 32 34 35 36 36 34 32 29 28 29 33 38 41 43 43 43 43 42 41 39 36 32 29 27 25 23 20 16 12 9 11 14 17 21 23 22 21 21 22 24 26 28 33 39 44 47 51 54 56 55 54 55 57
11 10 9 7 6 5 4 4 4 3 4 6 8 10 12 13 15 17 19 20 21 20 19 20 21 23 23 23 25 27 29 30 31 33 35 36 37 36 35 34 34 35 38 41 43 45 44 44 44 44 43 42 39 36 33 30 28 26 23 20 16 12 10 10 11 14 17 20 22 22 21 22 26 29 35 40 44 47 51 53 55 54 53 54 57
12 10 9 7 6 5 4 4 3 3 4 6 7 9 11 13 15 16 17 19 20 22 22 22 22 22 23 23 25 28 29 29 31 33 36 37 38 38 39 41 41 41 42 44 44 45 44 43 43 44 44 44 42 39 36 33 30 28 26 24 21 16 12 10 9 11 14 17 20 20 19 22 26 30 35 41 44 49 52 53 53 54 54 55 57
12 10 9 7 6 5 4 3 2 2 4 6 7 9 11 12 14 15 16 18 19 20 22 23 23 24 24 25 27 29 29 28 29 31 34 37 39 40 42 43 42 42 43 44 45 46 45 44 43 43 44 45 44 43 40 37 33 30 28 25 22 19 16 12 10 11 13 15 17 17 17 21 26 30 35 40 43 48 52 53 54 54 54 55 57
12 10 8 7 5 5 4 3 1 2 4 5 7 9 10 12 13 14 15 16 18 19 20 22 25 27 27 28 29 30 29 28 29 32 35 39 42 43 43 43 43 42 43 44 45 45 46 46 45 44 44 45 45 44 43 41 37 34 30 27 24 21 17 13 10 10 11 13 14 15 15 18 25 31 35 40 43 47 49 51 53 54 53 53 55
12 10 8 7 6 5 4 2 0 2 3 5 7 8 10 11 12 13 14 15 16 18 19 21 23 25 27 28 30 30 30 31 34 36 39 41 43 44 44 44 43 42 42 43 45 45 46 46 46 45 44 45 45 45 44 43 41 37 33 30 27 23 19 16 12 10 10 10 11 12 15 17 23 30 36 39 42 46 48 49 50 53 53 52 54
12 11 9 7 6 5 3 2 1 2 3 5 7 8 9 11 11 12 13 14 16 17 18 20 22 23 25 27 28 28 29 31 33 36 38 39 41 42 43 44 44 43 43 44 45 45 46 46 46 45 45 45 46 45 44 44 44 41 36 33 31 27 24 20 16 13 10 8 9 11 14 17 21 28 35 39 40 43 47 48 48 51 54 55 57
12 11 9 8 6 5 3 2 1 1 3 5 6 8 9 10 11 12 13 14 15 16 17 18 20 21 22 23 23 23 25 27 30 32 35 37 39 40 41 42 43 43 43 44 44 45 46 46 47 46 46 46 47 47 45 45 46 45 41 38 35 31 26 22 19 16 12 9 9 11 13 16 20 25 32 38 39 40 43 47 48 50 53 55 57
12 11 10 8 7 6 4 3 2 1 2 4 6 8 9 10 11 11 12 13 14 14 15 16 17 19 20 20 20 21 22 24 27 29 32 34 36 38 39 40 41 42 42 43 44 45 46 47 47 47 47 47 48 48 48 47 47 47 45 42 39 36 30 25 21 18 14 11 9 11 13 15 19 24 30 36 39 39 40 44 47 50 51 51 52
13 11 10 9 7 6 5 3 2 0 2 4 5 7 8 9 10 11 11 12 13 14 14 15 16 17 18 18 18 19 21 22 24 27 29 31 33 35 37 38 39 40 40 41 42 44 46 47 47 47 47 47 48 49 49 48 47 47 47 45 43 40 34 28 23 19 16 13 9 10 14 16 18 23 28 33 36 38 39 41 44 48 50 49 48
13 12 11 10 8 6 5 3 1 0 2 4 5 6 7 8 9 10 11 11 12 13 14 15 15 16 17 18 18 19 20 22 23 25 27 29 31 33 34 36 38 38 39 40 41 43 45 47 48 48 48 49 50 50 50 50 49 48 47 46 45 43 38 32 27 22 19 16 12 10 13 17 19 22 26 32 35 37 39 41 42 45 48 49 47
14 13 11 10 8 7 5 3 1 0 2 3 4 5 6 7 8 9 10 10 11 12 13 14 15 16 16 17 18 20 20 21 22 24 25 27 28 30 32 34 36 37 39 39 40 41 44 46 48 49 50 51 52 52 52 51 51 50 48 47 45 43 39 34 29 24 20 18 15 12 12 17 20 22 25 30 35 38 39 41 43 43 45 47 49
14 13 12 10 9 7 6 4 2 0 2 3 4 4 5 6 7 8 9 10 10 11 12 13 13 14 16 17 18 19 20 20 21 22 23 25 26 28 29 31 33 35 37 38 39 40 42 45 48 49 50 51 52 53 53 52 52 52 50 47 44 41 37 33 27 23 20 17 15 13 12 15 20 23 25 28 33 38 40 42 43 44 44 46 49
14 13 12 10 9 8 6 4 2 0 1 2 3 4 4 5 6 7 8 9 9 10 10 11 12 13 15 17 18 19 20 20 21 22 22 24 25 26 28 29 30 32 35 37 38 39 40 43 46 49 50 51 52 54 54 53 53 53 52 49 45 40 36 32 27 22 18 16 14 11 11 13 17 23 25 27 31 35 38 40 42 44 45 46 48
15 13 12 11 10 8 6 4 3 1 1 1 2 3 3 4 5 6 6 8 8 9 9 10 11 13 14 16 17 18 19 20 21 21 22 23 24 25 26 28 29 30 32 34 36 38 39 41 44 47 49 50 52 54 55 54 53 52 52 51 46 40 35 32 28 23 18 14 12 9 7 10 15 20 24 25 29 33 36 37 39 42 44 45 47
15 13 12 11 10 8 6 5 3 2 1 1 1 2 3 3 4 5 5 6 7 8 9 10 11 12 14 15 16 18 19 20 21 21 22 23 24 25 26 27 28 29 30 32 35 37 38 39 42 45 48 49 50 53 55 56 54 52 51 50 48 43 37 33 30 26 20 15 11 8 4 5 11 17 21 24 27 31 34 36 37 40 42 44 45
15 14 12 11 10 8 7 5 4 3 2 2 1 1 2 2 3 3 4 5 6 7 8 10 11 12 13 15 16 18 19 20 21 22 23 24 24 25 26 27 28 28 29 30 32 34 36 38 40 42 45 47 48 50 53 56 55 52 49 48 48 46 41 37 33 29 25 20 15 11 7 1 6 13 18 22 25 28 31 34 36 38 40 42 44
15 14 13 11 10 9 7 6 5 4 3 2 1 0 1 1 1 2 3 4 5 6 7 9 11 12 14 15 16 18 19 20 21 22 23 24 25 25 26 27 28 29 29 29 30 31 34 36 38 39 42 45 47 47 50 53 55 53 50 48 48 47 45 41 37 33 29 25 20 15 11 6 1 8 13 18 22 25 28 31 34 36 38 41 43
Wind_Direction
232 236 239 244 251 259 268 278 286 296 307 314 316 316 316 315 316 316 317 318 318 318 318 317 317 316 315 314 312 310 309 308 308 307 305 303 301 299 299 299 297 295 293 288 284 279 276 275 273 271 271 269 268 270 274 275 272 270 265 261 258 255 262 267 259 258 263 266 267 269 272 277 279 281 277 261 250 253 271 261 241 236 235 228 226
231 234 238 244 252 260 270 280 290 301 311 315 315 315 315 315 317 318 319 320 319 319 319 318 318 317 315 313 312 310 310 310 309 308 306 303 302 301 300 300 297 293 289 286 282 276 276 274 270 271 271 268 268 272 276 273 269 270 267 261 259 256 260 267 261 257 262 265 266 269 272 275 278 280 278 270 259 254 267 269 241 233 230 224 221
230 233 238 245 253 263 274 284 296 306 312 313 313 314 314 317 319 320 320 320 320 320 319 319 317 316 314 313 312 311 311 311 309 307 305 302 302 302 301 300 296 290 284 282 279 275 275 273 268 270 270 268 269 273 277 274 265 263 263 259 258 257 259 266 261 256 260 263 265 269 272 275 278 280 280 275 265 254 258 277 251 231 225 221 220
228 231 237 246 256 266 277 289 301 309 311 311 312 314 316 319 321 322 322 320 320 320 319 318 317 315 314 312 312 312 312 312 309 307 304 303 304 303 301 298 294 290 285 279 277 276 274 271 269 270 269 269 271 273 278 280 273 267 265 262 259 258 260 267 262 253 256 261 264 268 271 275 278 280 282 277 268 256 253 273 267 231 222 223 222
227 232 238 249 259 270 282 295 305 309 310 311 313 316 319 322 323 323 323 321 320 320 318 318 316 315 314 314 314 315 313 312 309 306 305 306 306 302 298 297 294 292 289 283 279 278 274 271 272 271 269 269 274 276 278 282 281 271 265 264 262 258 260 268 264 255 255 260 264 269 270 274 277 278 283 279 270 260 252 265 271 227 215 218 216
227 233 241 251 262 275 287 300 306 308 310 311 315 319 322 324 324 324 323 321 320 319 319 318 316 315 316 316 316 315 313 312 309 307 308 309 306 301 299 299 298 296 294 290 286 282 277 276 277 274 271 269 273 278 281 286 285 274 264 260 258 257 260 270 268 258 256 259 264 269 269 273 278 277 280 280 273 266 256 263 269 217 195 197 196
227 234 244 253 266 280 292 303 306 308 310 313 318 322 324 324 325 324 322 320 320 320 319 318 317 317 317 317 317 316 314 313 311 311 314 312 307 305 304 304 303 301 299 297 295 291 286 284 284 281 279 275 276 280 283 286 285 278 271 262 254 251 254 266 273 263 256 258 262 268 268 272 276 276 278 279 274 270 262 265 269 214 179 175 175
229 236 247 257 271 286 296 303 306 308 312 316 321 324 325 325 324 323 322 321 320 320 318 318 318 318 319 318 318 317 316 315 316 318 320 317 312 310 309 306 304 304 303 301 299 297 294 291 291 289 286 283 282 284 286 287 285 280 277 268 258 254 254 260 271 265 256 256 260 265 269 273 276 276 277 276 270 266 259 261 265 222 177 170 169
230 239 250 263 278 291 299 304 307 309 314 319 324 325 325 325 324 323 322 321 320 319 318 319 320 319 320 320 320 321 321 320 322 324 323 316 310 307 303 302 301 300 300 299 297 296 294 293 293 292 290 286 280 278 278 280 280 277 277 273 262 259 259 261 267 265 257 256 259 262 265 269 272 274 274 269 263 263 258 258 262 228 183 174 173
231 242 254 268 283 294 301 305 307 311 318 323 325 325 325 324 323 322 322 321 320 319 320 321 322 321 322 324 325 325 324 324 325 326 318 305 300 298 296 295 295 293 294 293 291 291 290 292 293 294 294 289 278 273 270 270 272 271 272 272 263 256 254 256 263 265 258 255 258 261 261 264 268 271 272 267 264 266 261 258 262 234 189 177 177
233 244 258 272 286 296 302 305 308 315 321 325 325 325 324 324 323 322 322 321 320 320 322 323 324 326 327 328 328 327 327 328 328 326 316 303 297 296 294 294 292 290 291 289 287 286 285 287 289 288 291 293 287 283 277 270 271 271 268 269 264 257 252 250 256 261 258 256 257 259 259 262 266 267 268 267 267 271 264 256 261 241 193 177 176
235 247 262 277 289 298 302 306 312 319 324 325 325 324 324 323 322 322 321 322 321 322 324 326 328 331 331 331 330 330 331 332 330 326 318 307 302 299 296 296 294 292 291 288 287 286 283 283 285 282 284 288 287 285 281 273 273 275 271 268 265 260 254 251 252 255 256 255 255 256 256 258 264 264 263 264 264 271 267 257 259 244 199 179 176
237 251 266 281 292 299 303 308 316 322 324 325 324 324 323 322 322 322 322 323 323 324 327 329 332 334 333 333 333 334 336 337 335 330 320 309 305 302 299 298 296 293 291 288 287 286 282 284 289 286 286 288 285 281 279 277 278 280 276 267 261 259 254 249 247 248 251 252 252 255 255 256 261 261 260 262 260 265 266 257 258 246 204 181 178
239 254 270 286 294 300 305 311 319 323 324 324 323 323 322 322 321 322 323 324 325 327 329 331 334 336 336 336 336 338 342 342 340 334 321 310 307 305 302 301 298 294 293 290 288 288 286 287 289 288 290 292 288 283 281 279 281 283 278 264 255 258 257 249 246 245 247 248 248 252 254 254 257 257 258 263 261 261 263 257 260 249 208 185 182
242 258 275 288 295 300 307 314 320 323 323 322 323 322 321 321 322 322 324 326 326 329 331 332 335 337 339 341 340 342 346 347 344 338 325 314 311 309 305 304 303 300 297 293 291 291 290 288 286 286 289 292 292 288 282 279 278 280 277 261 251 257 258 250 247 245 245 245 245 250 253 252 254 256 258 264 265 263 260 249 257 253 214 188 181
244 262 278 289 296 302 309 316 321 322 322 321 321 321 319 321 322 323 325 327 328 330 332 333 336 339 341 345 344 343 348 351 348 341 329 317 314 312 312 313 310 304 299 296 293 291 288 285 282 282 285 288 292 291 284 277 272 273 274 261 247 252 254 245 244 245 245 245 245 249 252 251 253 256 257 263 265 266 262 249 254 258 221 186 175
246 265 280 289 297 304 310 317 320 320 320 320 320 319 319 321 324 324 326 328 330 332 332 333 337 341 345 348 346 345 348 351 350 343 331 321 318 317 316 316 311 303 299 297 295 293 290 286 282 281 281 283 289 291 284 274 266 267 270 261 249 255 254 242 239 240 241 242 243 247 251 250 253 256 257 263 264 266 269 259 256 260 227 184 172
249 267 281 290 298 306 311 317 319 318 319 319 318 318 319 322 325 326 328 329 331 333 332 332 338 344 348 349 348 346 346 348 349 344 331 322 320 319 316 313 309 305 302 300 298 296 294 290 285 281 279 280 284 287 283 273 266 264 265 260 254 256 252 243 241 241 239 241 243 247 251 251 253 256 258 264 265 265 271 264 257 262 235 186 171
252 269 282 292 299 305 311 316 316 316 318 318 317 317 320 323 325 327 330 330 330 333 333 333 338 346 350 351 351 349 344 343 344 340 328 321 321 321 318 314 310 308 304 302 303 301 296 294 290 283 281 279 280 281 278 272 267 265 264 260 257 256 251 246 247 247 244 244 246 249 252 251 255 260 261 265 266 263 265 263 256 260 242 191 172
255 271 283 293 299 304 312 315 314 315 317 317 315 317 320 323 326 329 330 331 331 332 334 336 341 347 351 350 349 347 343 340 340 334 326 324 324 322 319 316 312 310 308 307 307 305 300 297 292 286 285 282 279 279 276 269 265 263 262 258 254 254 254 252 252 252 249 249 250 252 255 255 259 263 263 265 265 260 261 261 251 249 240 196 173
257 272 285 293 297 304 311 312 313 315 315 314 315 317 321 324 327 330 332 332 332 333 337 341 344 346 348 348 348 348 345 340 335 331 329 328 327 324 321 317 314 312 311 308 306 302 298 294 289 285 285 282 279 279 278 273 266 260 258 256 254 255 257 255 254 254 252 253 255 256 258 260 260 262 263 263 262 258 259 257 244 238 234 201 175
258 273 285 290 294 304 310 309 313 315 312 312 314 317 321 326 327 330 333 333 333 336 341 345 345 346 347 348 349 349 348 342 336 334 333 329 328 326 323 318 315 313 311 308 304 299 294 289 286 283 282 282 280 280 278 276 271 263 258 256 254 254 254 253 254 254 253 255 257 257 259 260 259 261 262 260 258 257 259 252 236 230 230 206 182
259 273 281 284 291 303 306 307 311 311 308 310 313 318 323 327 328 331 335 335 336 339 343 346 347 347 346 346 347 348 348 346 343 341 336 331 329 328 324 320 317 315 312 308 304 300 295 290 286 283 282 282 282 281 279 275 272 268 262 256 253 252 251 250 250 250 251 253 255 256 258 258 258 261 260 257 256 257 256 245 229 225 227 210 190
259 271 274 278 288 299 302 304 307 307 306 308 313 319 324 327 330 334 336 337 339 341 344 348 350 347 344 344 346 350 350 348 348 347 342 335 331 329 326 323 320 318 315 311 307 303 297 293 290 286 283 281 279 280 278 273 269 267 263 258 254 250 248 246 244 244 247 249 249 252 255 256 258 259 257 255 258 258 251 238 225 222 223 210 194
258 264 264 270 282 293 296 299 303 304 305 308 314 322 326 328 333 336 338 342 344 343 347 351 348 344 343 343 344 350 352 349 349 351 347 339 334 332 330 327 324 322 319 316 313 308 302 298 293 286 280 278 278 277 275 271 269 266 261 257 253 248 243 242 241 242 243 244 245 249 253 255 256 257 256 257 261 259 248 234 223 219 220 210 196
253 253 254 258 269 283 289 294 301 303 304 309 317 325 328 331 335 338 341 346 347 346 350 351 345 340 342 342 344 350 352 350 351 352 348 342 337 335 334 331 328 328 326 323 321 317 313 309 302 289 278 275 276 276 274 272 272 271 265 257 250 245 241 238 238 239 240 243 245 247 249 252 254 256 259 261 261 254 240 228 219 215 216 209 195
245 244 246 247 254 269 279 287 297 302 304 310 318 326 330 333 338 341 344 348 349 350 352 348 341 340 341 342 346 351 351 350 352 351 347 342 339 337 336 335 334 335 335 332 328 324 320 316 308 296 289 286 282 279 278 275 274 272 267 258 249 244 239 235 235 238 241 244 247 248 249 253 256 259 262 260 255 244 230 220 214 211 211 205 191
236 238 238 240 250 263 271 282 295 301 306 313 320 327 331 335 341 346 349 351 352 352 349 343 340 342 341 343 350 352 350 350 352 349 344 342 341 340 339 338 338 340 340 336 330 326 323 319 314 310 312 307 298 294 293 290 285 278 268 257 248 243 239 235 234 238 243 245 248 250 252 255 258 260 259 254 245 232 221 214 210 206 203 197 187
228 231 233 237 251 266 274 285 295 299 306 320 329 332 333 338 347 352 353 355 355 352 345 341 342 344 343 348 354 351 347 347 348 346 344 343 343 343 342 339 340 344 343 340 338 338 337 333 333 341 342 324 309 304 304 301 298 289 275 260 247 240 238 236 235 236 240 242 245 248 250 254 257 257 254 248 236 222 212 207 204 201 196 191 185
223 223 228 239 253 267 277 289 296 299 310 331 341 341 339 341 346 351 355 357 355 352 346 342 345 347 346 352 357 352 346 346 347 347 348 347 346 346 344 342 347 350 347 349 356 1 1 357 357 2 2 355 347 338 329 320 314 307 291 269 252 241 238 236 236 238 239 240 243 245 247 252 256 254 249 240 224 211 205 201 198 195 191 188 185
221 219 224 239 252 266 280 292 298 303 320 344 353 357 358 350 346 348 353 353 350 351 351 347 348 351 352 357 360 356 354 356 354 353 354 353 351 353 352 352 358 1 0 5 13 16 15 13 10 10 8 5 1 355 348 342 335 331 320 283 257 247 243 239 235 237 238 239 242 245 248 253 255 251 243 230 213 202 198 195 192 190 189 188 184
217 216 220 233 247 261 277 291 300 309 331 352 355 356 360 5 4 355 352 350 346 349 354 354 354 355 358 4 7 2 1 5 3 0 1 1 358 0 3 4 9 13 13 17 20 21 21 19 15 13 11 9 6 1 356 352 347 342 338 317 269 251 247 243 237 234 234 238 243 246 250 255 253 245 236 222 206 196 191 189 188 187 187 186 184
213 214 218 226 240 255 269 286 299 314 343 355 357 357 355 357 0 359 358 358 353 350 352 353 355 359 1 8 15 11 7 9 10 8 7 6 5 5 8 13 19 23 23 24 24 22 21 19 16 14 12 10 8 4 0 357 354 350 344 330 302 265 249 246 245 241 239 240 246 251 255 257 250 238 227 216 202 192 188 187 186 186 184 183 181
208 211 215 221 234 248 266 285 294 318 1 2 357 0 359 356 356 355 356 359 0 1 1 357 359 6 9 11 17 17 12 12 14 13 11 10 9 8 7 9 15 23 28 29 26 21 18 16 15 13 12 10 8 6 3 359 356 353 347 337 323 295 260 250 251 252 251 251 252 257 260 254 241 229 220 210 200 192 188 186 185 184 182 180 179
204 206 210 217 228 243 263 281 296 336 12 8 2 3 360 357 357 355 355 356 356 358 3 4 5 11 13 13 18 20 16 13 16 18 16 14 12 9 8 10 14 20 25 28 25 20 16 13 12 12 11 10 8 7 4 1 359 355 350 344 339 325 296 271 259 257 261 262 262 263 260 245 230 221 214 206 197 191 188 186 185 183 182 180 179
202 202 205 212 220 237 260 276 297 357 13 7 5 4 358 356 356 355 356 357 355 355 358 2 6 12 13 13 18 22 19 15 17 20 21 19 17 15 16 18 19 21 23 25 24 20 16 13 12 11 9 9 9 8 5 3 0 358 356 350 346 341 331 312 284 266 261 260 264 269 259 235 221 215 210 204 198 193 190 188 186 183 182 181 180
200 201 204 209 217 232 252 269 299 11 17 7 3 0 356 355 355 355 355 356 355 356 358 358 2 9 12 13 20 24 20 15 17 21 22 22 22 22 23 23 21 21 23 24 22 20 16 14 13 11 9 9 9 8 7 6 2 359 358 354 350 346 343 333 311 289 272 260 264 274 260 230 217 213 208 202 198 195 192 190 188 185 183 182 181
196 200 202 205 215 232 243 250 307 20 13 3 359 355 352 352 353 355 357 357 356 358 360 0 3 7 9 12 20 23 16 11 14 19 23 24 24 23 24 24 22 22 23 24 23 20 17 15 14 12 10 9 10 9 9 7 5 2 359 356 352 348 342 332 313 295 278 262 263 276 266 234 217 213 209 203 199 196 193 191 189 186 184 182 181
195 197 198 202 212 227 237 238 66 34 6 356 352 348 348 350 351 354 358 358 358 360 1 4 8 9 8 12 18 19 14 12 16 19 22 24 25 23 23 24 23 23 23 24 24 22 18 15 15 14 11 9 10 11 10 9 8 6 3 0 356 351 344 335 322 307 288 262 252 262 263 243 221 213 209 205 200 197 194 191 189 186 184 183 182
195 193 194 202 211 216 217 198 100 37 358 349 347 344 346 348 350 356 360 0 1 3 3 6 10 11 11 15 18 16 12 16 20 21 21 22 24 24 23 23 23 23 24 24 24 23 21 18 16 15 13 10 10 11 11 10 10 9 7 5 1 356 350 342 332 320 305 276 249 241 245 243 229 216 209 206 202 198 195 193 190 187 185 185 186
192 193 195 200 206 207 199 172 129 38 353 345 343 343 346 348 350 357 1 1 2 5 6 8 12 13 14 18 20 16 13 17 21 22 22 22 23 23 23 23 23 23 24 24 24 24 24 21 18 16 15 12 11 11 12 12 12 11 10 8 5 0 354 346 337 326 313 290 256 232 228 231 228 220 212 207 204 201 197 194 191 189 188 188 188
190 193 197 200 201 198 186 165 144 34 351 344 341 343 345 348 352 357 0 1 3 5 7 10 13 13 15 18 19 16 15 18 20 22 22 22 22 23 23 23 22 23 24 25 25 26 25 22 19 18 16 13 11 12 13 13 12 12 10 9 7 3 358 351 343 331 317 299 265 233 223 221 222 222 217 210 206 204 200 195 193 192 191 190 189
190 193 197 198 197 190 178 164 151 37 349 343 342 344 346 348 352 356 358 1 2 3 5 10 14 14 16 17 17 17 17 18 20 21 22 22 22 22 22 22 22 22 23 25 27 28 27 24 21 20 18 15 13 13 14 14 13 12 10 9 8 5 1 356 349 338 324 309 281 240 223 217 218 221 220 214 207 205 203 199 195 193 193 192 190
191 195 196 193 189 183 174 169 165 34 349 343 343 347 349 350 351 354 357 1 1 2 5 9 11 13 15 16 16 17 18 19 19 19 20 20 20 21 21 21 21 21 21 23 26 29 30 27 24 22 21 19 17 16 16 17 16 14 12 10 8 5 3 359 355 347 335 319 300 262 229 218 216 218 219 216 211 206 204 202 198 195 194 193 192
193 195 193 189 185 179 173 172 177 335 343 343 347 350 351 351 350 351 356 0 2 3 5 8 10 13 15 17 18 18 19 19 18 17 17 17 18 19 19 20 20 20 20 20 24 28 30 30 28 25 23 21 19 18 18 19 19 17 15 12 9 7 4 360 355 350 342 328 311 284 245 223 216 215 217 217 213 209 206 204 202 198 195 194 194
193 192 189 186 181 176 175 178 180 287 333 341 350 352 349 348 349 351 356 2 5 6 8 10 12 14 15 18 21 20 20 19 18 16 16 15 14 16 17 18 19 21 20 19 21 26 30 31 30 28 25 22 20 19 20 20 20 19 18 15 12 9 6 1 357 352 347 337 320 296 263 233 219 215 215 216 215 212 209 207 204 201 198 196 195
191 189 186 183 180 178 177 178 178 225 321 336 348 349 346 346 349 352 358 5 10 11 12 14 17 17 19 22 23 22 21 20 18 17 16 14 13 13 14 15 17 19 20 19 19 22 27 31 32 30 28 25 22 21 21 21 21 21 20 18 15 13 9 5 2 359 354 345 331 306 273 244 226 217 214 215 215 213 210 207 205 203 200 198 198
188 187 184 182 181 180 178 174 176 192 276 318 333 340 344 348 350 355 3 11 14 16 18 21 23 22 23 25 25 24 23 22 21 19 17 15 14 14 14 14 15 17 18 19 18 19 23 29 31 31 29 27 24 22 21 21 21 22 21 20 18 16 13 10 8 7 4 356 343 322 283 247 230 220 215 214 215 215 211 207 205 204 202 201 200
186 185 184 183 182 181 178 176 177 180 202 256 303 336 346 348 352 1 10 15 17 18 22 26 29 28 28 28 28 27 25 24 23 22 21 19 17 16 15 15 15 16 17 18 17 17 20 26 30 31 31 29 26 23 21 21 21 21 22 21 20 18 18 17 15 13 11 10 3 352 326 246 224 218 214 213 215 217 215 211 207 204 203 202 202
184 183 183 185 184 181 177 176 175 175 190 216 249 331 348 354 2 11 19 21 21 20 23 27 30 31 30 30 29 28 27 26 24 23 22 21 20 19 18 17 17 17 18 18 17 16 17 22 27 30 31 30 28 24 21 21 21 21 21 22 22 21 21 22 22 20 19 21 21 18 11 333 212 209 209 209 210 213 214 214 211 208 205 204 203
183 183 185 185 184 181 177 176 174 177 184 194 204 249 348 8 16 23 30 31 25 23 25 29 31 31 30 29 29 28 27 26 25 23 22 22 21 20 20 19 18 18 19 19 17 16 16 19 24 28 30 30 29 25 20 19 20 21 21 22 24 24 24 25 26 27 28 29 30 30 28 26 170 197 199 201 202 204 207 210 212 211 209 207 206